WUK243 EGGW-LWSK

Flight info

Callsign WUK243
Flight time 2h 31m
Altitude 23000
Route MATCH Q295 BRAIN P44 DAGGA M85 ITVIP/N0430F350 L10 DVR UL9 KONAN DCT KOK DCT PITES/N0433F370 DCT BABEG DCT KUMOM DCT LUMUS DCT KUSIB DCT MEDUX UM867 KOGAT
Aircraft A21N/M-SDE1E2E3FGIJ1J4RWXY/LB1

Departure

Time 2026-04-26 14:13
Airport London Luton Airport (EGGW)

Arrival

Time 2026-04-26 16:45
Airport Skopje International Airport (LWSK)
Time Latitude Longitude Altitude Speed Heading
2026-04-26 13:09 51.87970 -0.37266 514 ft 0 kts 161°
2026-04-26 13:10 51.87969 -0.37266 514 ft 0 kts 161°
2026-04-26 14:02 51.87980 -0.37271 514 ft 4 kts 161°
2026-04-26 14:02 51.88001 -0.37283 514 ft 3 kts 160°
2026-04-26 14:02 51.88018 -0.37302 514 ft 4 kts 102°
2026-04-26 14:02 51.88016 -0.37340 514 ft 4 kts 72°
2026-04-26 14:03 51.88007 -0.37381 514 ft 4 kts 72°
2026-04-26 14:03 51.88004 -0.37399 514 ft 0 kts 72°
2026-04-26 14:06 51.88004 -0.37398 514 ft 1 kts 72°
2026-04-26 14:06 51.88010 -0.37367 514 ft 5 kts 72°
2026-04-26 14:06 51.88017 -0.37332 514 ft 4 kts 72°
2026-04-26 14:07 51.88031 -0.37264 514 ft 8 kts 72°
2026-04-26 14:07 51.88046 -0.37184 514 ft 0 kts 78°
2026-04-26 14:07 51.88043 -0.37174 514 ft 2 kts 123°
2026-04-26 14:07 51.88028 -0.37151 514 ft 4 kts 141°
2026-04-26 14:08 51.87987 -0.37115 514 ft 9 kts 160°
2026-04-26 14:08 51.87919 -0.37079 514 ft 11 kts 162°
2026-04-26 14:08 51.87834 -0.37035 518 ft 14 kts 162°
2026-04-26 14:08 51.87741 -0.36986 524 ft 13 kts 162°
2026-04-26 14:09 51.87675 -0.36950 529 ft 8 kts 161°
2026-04-26 14:09 51.87651 -0.36943 530 ft 2 kts 193°
2026-04-26 14:09 51.87631 -0.36964 529 ft 4 kts 233°
2026-04-26 14:09 51.87624 -0.36998 527 ft 4 kts 255°
2026-04-26 14:10 51.87615 -0.37054 527 ft 7 kts 255°
2026-04-26 14:10 51.87600 -0.37139 527 ft 9 kts 255°
2026-04-26 14:10 51.87581 -0.37249 527 ft 11 kts 254°
2026-04-26 14:10 51.87584 -0.37381 527 ft 11 kts 283°
2026-04-26 14:11 51.87493 -0.37597 528 ft 14 kts 256°
2026-04-26 14:11 51.87465 -0.37760 528 ft 16 kts 253°
2026-04-26 14:11 51.87436 -0.37925 529 ft 13 kts 254°
2026-04-26 14:12 51.87401 -0.38031 529 ft 10 kts 223°
2026-04-26 14:12 51.87336 -0.38092 528 ft 12 kts 205°
2026-04-26 14:12 51.87267 -0.38123 528 ft 7 kts 191°
2026-04-26 14:12 51.87245 -0.38090 529 ft 5 kts 76°
2026-04-26 14:13 51.87388 -0.37278 527 ft 107 kts 75°
2026-04-26 14:13 51.87646 -0.35770 695 ft 158 kts 75°
2026-04-26 14:13 51.87942 -0.34018 1572 ft 166 kts 76°
2026-04-26 14:14 51.88263 -0.32119 2204 ft 183 kts 76°
2026-04-26 14:14 51.88620 -0.30026 2764 ft 202 kts 76°
2026-04-26 14:14 51.89021 -0.27693 3208 ft 230 kts 76°
2026-04-26 14:14 51.89473 -0.25065 3729 ft 252 kts 76°
2026-04-26 14:15 51.89755 -0.22209 4499 ft 261 kts 94°
2026-04-26 14:15 51.89293 -0.19369 5425 ft 264 kts 118°
2026-04-26 14:15 51.88121 -0.17097 6308 ft 266 kts 143°
2026-04-26 14:15 51.86443 -0.15828 7137 ft 271 kts 168°
2026-04-26 14:16 51.84555 -0.15799 7819 ft 275 kts 189°
2026-04-26 14:16 51.82642 -0.16110 8178 ft 277 kts 175°
2026-04-26 14:16 51.80808 -0.15139 8844 ft 283 kts 149°
2026-04-26 14:16 51.79372 -0.12964 9688 ft 288 kts 125°
2026-04-26 14:17 51.78580 -0.09976 10476 ft 295 kts 103°
2026-04-26 14:17 51.78265 -0.06602 10913 ft 314 kts 97°
2026-04-26 14:17 51.78044 -0.03015 11224 ft 335 kts 96°
2026-04-26 14:17 51.77824 0.00845 11507 ft 356 kts 96°
2026-04-26 14:18 51.77590 0.04932 11793 ft 375 kts 96°
2026-04-26 14:18 51.77346 0.09243 12084 ft 393 kts 96°
2026-04-26 14:18 51.77094 0.13681 12652 ft 400 kts 96°
2026-04-26 14:18 51.76837 0.18185 13341 ft 404 kts 96°
2026-04-26 14:19 51.76421 0.22676 13981 ft 407 kts 106°
2026-04-26 14:19 51.75364 0.26917 14567 ft 409 kts 118°
2026-04-26 14:19 51.73974 0.30940 15085 ft 412 kts 121°
2026-04-26 14:19 51.72529 0.34945 15304 ft 414 kts 121°
2026-04-26 14:20 51.71089 0.38968 15365 ft 414 kts 121°
2026-04-26 14:20 51.69660 0.43005 15370 ft 414 kts 121°
2026-04-26 14:20 51.68241 0.47046 15355 ft 414 kts 121°
2026-04-26 14:20 51.66827 0.51084 15352 ft 415 kts 121°
2026-04-26 14:21 51.65406 0.55144 15355 ft 416 kts 121°
2026-04-26 14:21 51.63984 0.59205 15365 ft 416 kts 121°
2026-04-26 14:21 51.62559 0.63275 15359 ft 416 kts 121°
2026-04-26 14:21 51.61150 0.67271 15359 ft 416 kts 121°
2026-04-26 14:22 51.59722 0.71315 15348 ft 415 kts 121°
2026-04-26 14:22 51.58293 0.75348 15351 ft 416 kts 121°
2026-04-26 14:22 51.56859 0.79399 15350 ft 416 kts 121°
2026-04-26 14:22 51.55425 0.83441 15361 ft 416 kts 121°
2026-04-26 14:23 51.53994 0.87469 15360 ft 415 kts 121°
2026-04-26 14:23 51.52558 0.91504 15355 ft 415 kts 121°
2026-04-26 14:23 51.51127 0.95525 15347 ft 415 kts 121°
2026-04-26 14:23 51.49688 0.99562 15354 ft 417 kts 121°
2026-04-26 14:24 51.48244 1.03600 15353 ft 417 kts 121°
2026-04-26 14:24 51.46799 1.07631 15365 ft 417 kts 121°
2026-04-26 14:24 51.45840 1.10296 15365 ft 417 kts 121°
2026-04-26 14:24 51.44386 1.14321 15353 ft 417 kts 121°
2026-04-26 14:25 51.42463 1.19651 15349 ft 417 kts 121°
2026-04-26 14:25 51.41012 1.23674 15347 ft 417 kts 121°
2026-04-26 14:25 51.39561 1.27694 15345 ft 417 kts 121°
2026-04-26 14:25 51.38105 1.31716 15344 ft 417 kts 121°
2026-04-26 14:26 51.37141 1.34371 15347 ft 416 kts 121°
2026-04-26 14:26 51.35686 1.38374 15345 ft 417 kts 121°
2026-04-26 14:26 51.34227 1.42382 15346 ft 417 kts 121°
2026-04-26 14:26 51.32766 1.46392 15338 ft 417 kts 121°
2026-04-26 14:27 51.31303 1.50408 15466 ft 419 kts 121°
2026-04-26 14:27 51.29832 1.54439 15995 ft 421 kts 121°
2026-04-26 14:27 51.28349 1.58502 16630 ft 425 kts 121°
2026-04-26 14:27 51.26855 1.62599 17250 ft 429 kts 121°
2026-04-26 14:28 51.25340 1.66741 17841 ft 433 kts 121°
2026-04-26 14:28 51.23816 1.70910 18456 ft 437 kts 121°
2026-04-26 14:28 51.22270 1.75120 18993 ft 441 kts 121°
2026-04-26 14:28 51.20710 1.79359 19512 ft 444 kts 121°
2026-04-26 14:29 51.19136 1.83615 20033 ft 448 kts 122°
2026-04-26 14:29 51.17541 1.87896 20536 ft 451 kts 122°
2026-04-26 14:29 51.15933 1.92230 21032 ft 455 kts 121°
2026-04-26 14:29 51.14395 1.96573 21487 ft 459 kts 117°
2026-04-26 14:30 51.13227 2.01392 21953 ft 463 kts 106°
2026-04-26 14:30 51.12659 2.06448 22432 ft 466 kts 96°
2026-04-26 14:30 51.12389 2.11546 22910 ft 470 kts 94°
2026-04-26 14:30 51.12146 2.16746 23384 ft 473 kts 94°
2026-04-26 14:31 51.11887 2.21989 23856 ft 476 kts 95°
2026-04-26 14:31 51.11607 2.27262 24212 ft 479 kts 95°
2026-04-26 14:31 51.11305 2.32565 24590 ft 482 kts 95°
2026-04-26 14:31 51.10996 2.37896 24958 ft 486 kts 95°
2026-04-26 14:32 51.10687 2.43267 25286 ft 489 kts 95°
2026-04-26 14:32 51.10378 2.48669 25670 ft 491 kts 95°
2026-04-26 14:32 51.10071 2.54077 26144 ft 491 kts 95°
2026-04-26 14:32 51.09759 2.59472 26624 ft 490 kts 95°
2026-04-26 14:33 51.09166 2.64819 27077 ft 490 kts 105°
2026-04-26 14:33 51.07940 2.69877 27535 ft 490 kts 116°
2026-04-26 14:33 51.06378 2.74689 27994 ft 489 kts 118°
2026-04-26 14:33 51.04778 2.79457 28469 ft 489 kts 118°
2026-04-26 14:34 51.03180 2.84237 29035 ft 489 kts 118°
2026-04-26 14:34 51.01599 2.89019 29427 ft 490 kts 118°
2026-04-26 14:34 51.00012 2.93812 29848 ft 490 kts 118°
2026-04-26 14:34 50.98430 2.98601 30288 ft 490 kts 117°
2026-04-26 14:35 50.96853 3.03391 30656 ft 490 kts 118°
2026-04-26 14:35 50.95271 3.08171 31014 ft 489 kts 118°
2026-04-26 14:35 50.93709 3.12885 31352 ft 489 kts 118°
2026-04-26 14:35 50.92120 3.17647 31695 ft 488 kts 118°
2026-04-26 14:36 50.90530 3.22401 32020 ft 488 kts 118°
2026-04-26 14:36 50.88939 3.27162 32347 ft 488 kts 118°
2026-04-26 14:36 50.87350 3.31892 32670 ft 488 kts 118°
2026-04-26 14:36 50.85757 3.36640 32972 ft 487 kts 118°
2026-04-26 14:37 50.84157 3.41371 33279 ft 487 kts 118°
2026-04-26 14:37 50.82557 3.46102 33565 ft 487 kts 118°
2026-04-26 14:37 50.80966 3.50823 33871 ft 486 kts 118°
2026-04-26 14:37 50.79377 3.55537 34149 ft 486 kts 118°
2026-04-26 14:38 50.77782 3.60244 34401 ft 486 kts 118°
2026-04-26 14:38 50.76183 3.64948 34653 ft 485 kts 118°
2026-04-26 14:38 50.74582 3.69636 34907 ft 484 kts 118°
2026-04-26 14:38 50.72988 3.74307 35166 ft 483 kts 118°
2026-04-26 14:39 50.71395 3.78968 35405 ft 482 kts 117°
2026-04-26 14:39 50.69823 3.83555 35634 ft 481 kts 117°
2026-04-26 14:39 50.68228 3.88199 35852 ft 480 kts 117°
2026-04-26 14:39 50.66636 3.92837 36064 ft 480 kts 118°
2026-04-26 14:40 50.65046 3.97459 36276 ft 479 kts 118°
2026-04-26 14:40 50.63457 4.02064 36491 ft 478 kts 118°
2026-04-26 14:40 50.61868 4.06668 36634 ft 478 kts 118°
2026-04-26 14:40 50.60281 4.11260 36844 ft 477 kts 118°
2026-04-26 14:41 50.58688 4.15849 37037 ft 477 kts 118°
2026-04-26 14:41 50.57097 4.20433 37267 ft 476 kts 118°
2026-04-26 14:41 50.55507 4.25005 37358 ft 476 kts 118°
2026-04-26 14:42 50.52346 4.34057 37334 ft 475 kts 118°
2026-04-26 14:42 50.49161 4.43142 37323 ft 475 kts 118°
2026-04-26 14:43 50.45975 4.52212 37320 ft 475 kts 118°
2026-04-26 14:43 50.42775 4.61283 37325 ft 475 kts 118°
2026-04-26 14:44 50.39571 4.70335 37299 ft 475 kts 118°
2026-04-26 14:44 50.36362 4.79375 37294 ft 475 kts 118°
2026-04-26 14:45 50.33141 4.88415 37295 ft 475 kts 118°
2026-04-26 14:45 50.29909 4.97439 37285 ft 475 kts 118°
2026-04-26 14:46 50.26697 5.06383 37298 ft 475 kts 118°
2026-04-26 14:46 50.23455 5.15377 37290 ft 475 kts 118°
2026-04-26 14:47 50.20196 5.24353 37281 ft 475 kts 118°
2026-04-26 14:47 50.16938 5.33327 37275 ft 475 kts 118°
2026-04-26 14:48 50.13690 5.42284 37276 ft 475 kts 118°
2026-04-26 14:48 50.10420 5.51229 37284 ft 475 kts 118°
2026-04-26 14:49 50.07148 5.60156 37270 ft 474 kts 118°
2026-04-26 14:49 50.03872 5.69054 37258 ft 474 kts 118°
2026-04-26 14:50 50.00591 5.77939 37261 ft 474 kts 118°
2026-04-26 14:50 49.97298 5.86829 37249 ft 474 kts 118°
2026-04-26 14:51 49.93997 5.95701 37262 ft 474 kts 119°
2026-04-26 14:51 49.90726 6.04491 37252 ft 473 kts 119°
2026-04-26 14:52 49.87422 6.13336 37245 ft 473 kts 119°
2026-04-26 14:52 49.84110 6.22167 37248 ft 473 kts 119°
2026-04-26 14:53 49.80786 6.30965 37258 ft 473 kts 119°
2026-04-26 14:53 49.77465 6.39769 37254 ft 472 kts 120°
2026-04-26 14:54 49.74166 6.48475 37239 ft 472 kts 120°
2026-04-26 14:54 49.71101 6.57426 37237 ft 471 kts 115°
2026-04-26 14:55 49.68224 6.66536 37231 ft 472 kts 115°
2026-04-26 14:55 49.65341 6.75634 37229 ft 472 kts 115°
2026-04-26 14:56 49.62441 6.84688 37236 ft 470 kts 116°
2026-04-26 14:56 49.59533 6.93718 37237 ft 470 kts 116°
2026-04-26 14:57 49.56634 7.02730 37248 ft 470 kts 116°
2026-04-26 14:57 49.53730 7.11742 37249 ft 470 kts 116°
2026-04-26 14:58 49.50838 7.20689 37258 ft 470 kts 116°
2026-04-26 14:58 49.47916 7.29664 37248 ft 469 kts 116°
2026-04-26 14:59 49.44998 7.38627 37248 ft 469 kts 116°
2026-04-26 14:59 49.42080 7.47576 37248 ft 469 kts 116°
2026-04-26 15:00 49.39151 7.56525 37252 ft 469 kts 116°
2026-04-26 15:00 49.36205 7.65449 37245 ft 468 kts 117°
2026-04-26 15:01 49.33256 7.74354 37244 ft 468 kts 117°
2026-04-26 15:01 49.30299 7.83250 37243 ft 468 kts 117°
2026-04-26 15:02 49.27345 7.92132 37243 ft 468 kts 117°
2026-04-26 15:02 49.24385 8.01008 37235 ft 468 kts 117°
2026-04-26 15:03 49.21421 8.09865 37240 ft 467 kts 117°
2026-04-26 15:03 49.18442 8.18696 37238 ft 467 kts 117°
2026-04-26 15:04 49.15479 8.27471 37240 ft 467 kts 117°
2026-04-26 15:04 49.12498 8.36301 37232 ft 467 kts 117°
2026-04-26 15:05 49.09517 8.45094 37239 ft 467 kts 117°
2026-04-26 15:05 49.06519 8.53890 37231 ft 467 kts 118°
2026-04-26 15:06 49.03507 8.62683 37229 ft 467 kts 118°
2026-04-26 15:06 49.00497 8.71465 37228 ft 467 kts 118°
2026-04-26 15:07 48.95959 8.84611 37219 ft 467 kts 118°
2026-04-26 15:07 48.92945 8.93307 37220 ft 467 kts 118°
2026-04-26 15:08 48.89910 9.02051 37228 ft 468 kts 118°
2026-04-26 15:08 48.86864 9.10789 37227 ft 468 kts 118°
2026-04-26 15:09 48.83811 9.19509 37222 ft 467 kts 118°
2026-04-26 15:09 48.80752 9.28222 37226 ft 468 kts 118°
2026-04-26 15:10 48.78204 9.35461 37240 ft 468 kts 118°
2026-04-26 15:10 48.74612 9.45620 37216 ft 468 kts 119°
2026-04-26 15:11 48.71535 9.54306 37217 ft 468 kts 119°
2026-04-26 15:11 48.68450 9.62969 37225 ft 468 kts 119°
2026-04-26 15:12 48.65232 9.71514 37214 ft 467 kts 121°
2026-04-26 15:12 48.61933 9.79918 37230 ft 467 kts 122°
2026-04-26 15:13 48.58607 9.88356 37220 ft 467 kts 122°
2026-04-26 15:13 48.55273 9.96784 37227 ft 467 kts 122°
2026-04-26 15:14 48.52502 10.03792 37236 ft 468 kts 122°
2026-04-26 15:14 48.49157 10.12209 37235 ft 468 kts 122°
2026-04-26 15:15 48.45802 10.20620 37232 ft 468 kts 122°
2026-04-26 15:15 48.42448 10.29012 37232 ft 468 kts 122°
2026-04-26 15:16 48.39082 10.37402 37237 ft 468 kts 122°
2026-04-26 15:16 48.35710 10.45784 37228 ft 468 kts 122°
2026-04-26 15:17 48.32904 10.52738 37224 ft 468 kts 122°
2026-04-26 15:17 48.28947 10.62513 37238 ft 468 kts 122°
2026-04-26 15:18 48.25553 10.70864 37233 ft 468 kts 123°
2026-04-26 15:18 48.22154 10.79202 37237 ft 468 kts 123°
2026-04-26 15:19 48.18753 10.87528 37236 ft 468 kts 123°
2026-04-26 15:19 48.15342 10.95843 37227 ft 469 kts 123°
2026-04-26 15:20 48.11923 11.04163 37210 ft 468 kts 123°
2026-04-26 15:20 48.08523 11.12398 37221 ft 468 kts 123°
2026-04-26 15:21 48.05097 11.20675 37224 ft 468 kts 123°
2026-04-26 15:21 48.01663 11.28947 37235 ft 468 kts 123°
2026-04-26 15:22 47.98225 11.37214 37232 ft 468 kts 123°
2026-04-26 15:22 47.94780 11.45460 37219 ft 468 kts 123°
2026-04-26 15:23 47.91330 11.53699 37211 ft 468 kts 123°
2026-04-26 15:23 47.87882 11.61908 37193 ft 467 kts 123°
2026-04-26 15:24 47.84425 11.70109 37179 ft 467 kts 123°
2026-04-26 15:24 47.80967 11.78286 37175 ft 467 kts 124°
2026-04-26 15:25 47.78091 11.85072 37173 ft 467 kts 124°
2026-04-26 15:25 47.74042 11.94600 37184 ft 466 kts 124°
2026-04-26 15:26 47.70592 12.02688 37178 ft 466 kts 124°
2026-04-26 15:26 47.67120 12.10808 37184 ft 466 kts 124°
2026-04-26 15:27 47.63641 12.18917 37169 ft 466 kts 124°
2026-04-26 15:27 47.60152 12.27020 37170 ft 466 kts 124°
2026-04-26 15:28 47.56662 12.35115 37164 ft 465 kts 124°
2026-04-26 15:28 47.52830 12.42803 37168 ft 464 kts 130°
2026-04-26 15:29 47.48850 12.50330 37172 ft 464 kts 130°
2026-04-26 15:30 47.40930 12.65305 37174 ft 463 kts 130°
2026-04-26 15:30 47.36946 12.72802 37175 ft 463 kts 130°
2026-04-26 15:31 47.30963 12.84019 37171 ft 464 kts 130°
2026-04-26 15:32 47.25646 12.93958 37162 ft 463 kts 130°
2026-04-26 15:32 47.20993 13.02622 37159 ft 463 kts 130°
2026-04-26 15:33 47.16999 13.10042 37149 ft 463 kts 130°
2026-04-26 15:33 47.12992 13.17461 37154 ft 463 kts 130°
2026-04-26 15:34 47.08989 13.24863 37141 ft 462 kts 130°
2026-04-26 15:34 47.04986 13.32244 37142 ft 462 kts 130°
2026-04-26 15:35 47.01003 13.39561 37126 ft 461 kts 130°
2026-04-26 15:35 46.97004 13.46891 37128 ft 461 kts 130°
2026-04-26 15:36 46.92997 13.54218 37124 ft 461 kts 130°
2026-04-26 15:36 46.88986 13.61531 37114 ft 461 kts 130°
2026-04-26 15:37 46.84966 13.68836 37100 ft 461 kts 130°
2026-04-26 15:37 46.80944 13.76140 37101 ft 462 kts 130°
2026-04-26 15:38 46.76925 13.83398 37097 ft 462 kts 130°
2026-04-26 15:38 46.72882 13.90694 37085 ft 462 kts 130°
2026-04-26 15:39 46.68837 13.97975 37076 ft 463 kts 130°
2026-04-26 15:39 46.65464 14.04042 37081 ft 462 kts 130°
2026-04-26 15:40 46.60715 14.12538 37083 ft 463 kts 131°
2026-04-26 15:40 46.56593 14.19642 37082 ft 462 kts 133°
2026-04-26 15:41 46.52368 14.26692 37086 ft 463 kts 133°
2026-04-26 15:41 46.48123 14.33764 37058 ft 464 kts 133°
2026-04-26 15:42 46.43888 14.40823 37083 ft 463 kts 133°
2026-04-26 15:42 46.39645 14.47864 37083 ft 463 kts 133°
2026-04-26 15:43 46.35395 14.54879 37082 ft 463 kts 133°
2026-04-26 15:44 46.29040 14.65364 37086 ft 464 kts 133°
2026-04-26 15:44 46.22632 14.75891 37086 ft 465 kts 133°
2026-04-26 15:45 46.16222 14.86374 37085 ft 464 kts 133°
2026-04-26 15:46 46.09804 14.96833 37096 ft 464 kts 133°
2026-04-26 15:46 46.06240 15.02619 37096 ft 464 kts 133°
2026-04-26 15:47 45.99112 15.14170 37103 ft 464 kts 133°
2026-04-26 15:48 45.94807 15.21096 37099 ft 464 kts 133°
2026-04-26 15:48 45.90521 15.27982 37108 ft 462 kts 133°
2026-04-26 15:49 45.86237 15.34861 37110 ft 462 kts 133°
2026-04-26 15:49 45.81955 15.41722 37112 ft 462 kts 133°
2026-04-26 15:50 45.77665 15.48572 37113 ft 462 kts 133°
2026-04-26 15:50 45.73373 15.55422 37115 ft 462 kts 133°
2026-04-26 15:51 45.69081 15.62256 37123 ft 462 kts 133°
2026-04-26 15:51 45.64787 15.69081 37118 ft 462 kts 133°
2026-04-26 15:52 45.60502 15.75842 37116 ft 462 kts 133°
2026-04-26 15:52 45.56189 15.82644 37121 ft 463 kts 133°
2026-04-26 15:53 45.51860 15.89459 37117 ft 464 kts 133°
2026-04-26 15:53 45.47529 15.96264 37121 ft 463 kts 133°
2026-04-26 15:54 45.43188 16.03061 37107 ft 463 kts 133°
2026-04-26 15:54 45.38856 16.09833 37124 ft 463 kts 133°
2026-04-26 15:55 45.34507 16.16606 37120 ft 464 kts 133°
2026-04-26 15:55 45.30159 16.23379 37118 ft 464 kts 133°
2026-04-26 15:56 45.25797 16.30146 37120 ft 464 kts 133°
2026-04-26 15:56 45.21465 16.36852 37115 ft 464 kts 134°
2026-04-26 15:57 45.17102 16.43591 37105 ft 464 kts 133°
2026-04-26 15:57 45.12754 16.50337 37118 ft 463 kts 133°
2026-04-26 15:58 45.08452 16.57139 37111 ft 463 kts 133°
2026-04-26 15:58 45.04135 16.63925 37108 ft 463 kts 133°
2026-04-26 15:59 44.99818 16.70683 37108 ft 463 kts 133°
2026-04-26 15:59 44.95497 16.77436 37105 ft 463 kts 133°
2026-04-26 16:00 44.91194 16.84137 37099 ft 463 kts 133°
2026-04-26 16:00 44.86858 16.90859 37111 ft 463 kts 133°
2026-04-26 16:01 44.82526 16.97569 37109 ft 463 kts 133°
2026-04-26 16:01 44.78193 17.04272 37109 ft 463 kts 133°
2026-04-26 16:02 44.73854 17.10964 37112 ft 463 kts 133°
2026-04-26 16:02 44.69509 17.17651 37113 ft 463 kts 133°
2026-04-26 16:03 44.65171 17.24322 37108 ft 463 kts 133°
2026-04-26 16:03 44.61556 17.29863 37113 ft 463 kts 133°
2026-04-26 16:04 44.56488 17.37610 37114 ft 463 kts 133°
2026-04-26 16:04 44.52845 17.43173 37111 ft 463 kts 133°
2026-04-26 16:05 44.48485 17.49808 37114 ft 463 kts 133°
2026-04-26 16:05 44.44142 17.56388 37114 ft 463 kts 133°
2026-04-26 16:06 44.39773 17.63002 37112 ft 463 kts 133°
2026-04-26 16:06 44.35407 17.69605 37112 ft 462 kts 133°
2026-04-26 16:07 44.31032 17.76198 37108 ft 462 kts 133°
2026-04-26 16:07 44.26660 17.82771 37110 ft 462 kts 133°
2026-04-26 16:08 44.22285 17.89352 37101 ft 462 kts 133°
2026-04-26 16:08 44.17901 17.95910 37104 ft 462 kts 134°
2026-04-26 16:09 44.13511 18.02455 37091 ft 462 kts 133°
2026-04-26 16:09 44.09154 18.08963 37105 ft 462 kts 133°
2026-04-26 16:10 44.04772 18.15485 37103 ft 462 kts 134°
2026-04-26 16:10 44.00381 18.21995 37106 ft 462 kts 134°
2026-04-26 16:11 43.95979 18.28501 37108 ft 462 kts 134°
2026-04-26 16:11 43.91579 18.34998 37111 ft 462 kts 134°
2026-04-26 16:12 43.87174 18.41485 37103 ft 462 kts 134°
2026-04-26 16:12 43.80555 18.51202 37109 ft 462 kts 134°
2026-04-26 16:13 43.76171 18.57628 37104 ft 462 kts 134°
2026-04-26 16:13 43.71752 18.64080 37103 ft 461 kts 134°
2026-04-26 16:14 43.67335 18.70521 37093 ft 461 kts 134°
2026-04-26 16:15 43.60695 18.80160 37088 ft 462 kts 134°
2026-04-26 16:15 43.56263 18.86585 37093 ft 462 kts 134°
2026-04-26 16:16 43.49599 18.96220 37098 ft 463 kts 134°
2026-04-26 16:16 43.45147 19.02631 37097 ft 463 kts 134°
2026-04-26 16:17 43.40698 19.09029 37098 ft 463 kts 134°
2026-04-26 16:17 43.36246 19.15421 37095 ft 463 kts 135°
2026-04-26 16:18 43.29551 19.24994 37097 ft 463 kts 135°
2026-04-26 16:19 43.22865 19.34525 37103 ft 464 kts 135°
2026-04-26 16:20 43.16140 19.44077 37101 ft 464 kts 135°
2026-04-26 16:20 43.09406 19.53608 37100 ft 464 kts 135°
2026-04-26 16:21 43.04909 19.59957 37095 ft 464 kts 135°
2026-04-26 16:21 43.00410 19.66299 37095 ft 464 kts 135°
2026-04-26 16:22 42.95910 19.72628 37091 ft 464 kts 135°
2026-04-26 16:22 42.91425 19.78910 37092 ft 465 kts 135°
2026-04-26 16:23 42.86915 19.85225 37097 ft 465 kts 135°
2026-04-26 16:23 42.82391 19.91544 37098 ft 465 kts 135°
2026-04-26 16:24 42.77864 19.97850 37100 ft 465 kts 135°
2026-04-26 16:24 42.73450 20.04287 37095 ft 466 kts 131°
2026-04-26 16:25 42.69333 20.11094 36936 ft 462 kts 130°
2026-04-26 16:25 42.67289 20.14481 36595 ft 464 kts 130°
2026-04-26 16:25 42.65232 20.17879 36318 ft 466 kts 130°
2026-04-26 16:26 42.63197 20.21232 36040 ft 466 kts 130°
2026-04-26 16:26 42.61804 20.23524 35872 ft 466 kts 130°
2026-04-26 16:26 42.59071 20.28014 35241 ft 465 kts 130°
2026-04-26 16:26 42.57005 20.31401 34285 ft 469 kts 130°
2026-04-26 16:27 42.54918 20.34821 33333 ft 470 kts 130°
2026-04-26 16:27 42.52830 20.38243 32347 ft 472 kts 130°
2026-04-26 16:27 42.50728 20.41681 31361 ft 474 kts 130°
2026-04-26 16:27 42.48619 20.45127 30373 ft 476 kts 130°
2026-04-26 16:28 42.46497 20.48587 29231 ft 479 kts 130°
2026-04-26 16:28 42.44361 20.52065 28042 ft 481 kts 130°
2026-04-26 16:28 42.42223 20.55547 26934 ft 481 kts 129°
2026-04-26 16:28 42.40080 20.59035 25768 ft 482 kts 129°
2026-04-26 16:29 42.37934 20.62521 24796 ft 480 kts 129°
2026-04-26 16:29 42.35809 20.65966 23971 ft 473 kts 129°
2026-04-26 16:29 42.33717 20.69361 23123 ft 467 kts 129°
2026-04-26 16:29 42.31645 20.72716 22170 ft 461 kts 129°
2026-04-26 16:30 42.29602 20.76021 21278 ft 457 kts 130°
2026-04-26 16:30 42.27569 20.79300 20382 ft 452 kts 130°
2026-04-26 16:30 42.25563 20.82536 19559 ft 447 kts 130°
2026-04-26 16:30 42.23578 20.85732 18731 ft 442 kts 130°
2026-04-26 16:31 42.21612 20.88894 17879 ft 437 kts 130°
2026-04-26 16:31 42.19691 20.91984 17002 ft 433 kts 130°
2026-04-26 16:31 42.17767 20.95075 16194 ft 427 kts 130°
2026-04-26 16:31 42.15864 20.98128 15405 ft 422 kts 130°
2026-04-26 16:32 42.13987 21.01137 14645 ft 417 kts 130°
2026-04-26 16:32 42.12751 21.03127 14122 ft 415 kts 129°
2026-04-26 16:32 42.10628 21.07405 13011 ft 408 kts 115°
2026-04-26 16:32 42.09512 21.10898 12241 ft 403 kts 111°
2026-04-26 16:33 42.08485 21.14375 11608 ft 395 kts 111°
2026-04-26 16:33 42.07480 21.17741 11290 ft 380 kts 111°
2026-04-26 16:33 42.06503 21.20969 11043 ft 365 kts 111°
2026-04-26 16:33 42.05558 21.24065 10829 ft 350 kts 111°
2026-04-26 16:34 42.04646 21.27032 10636 ft 336 kts 111°
2026-04-26 16:34 42.03772 21.29877 10451 ft 322 kts 111°
2026-04-26 16:34 42.02933 21.32599 10271 ft 309 kts 111°
2026-04-26 16:34 42.02121 21.35235 9968 ft 302 kts 111°
2026-04-26 16:35 42.01320 21.37831 9546 ft 300 kts 111°
2026-04-26 16:35 42.00522 21.40417 9083 ft 299 kts 111°
2026-04-26 16:35 41.99724 21.42997 8602 ft 298 kts 110°
2026-04-26 16:35 41.98935 21.45539 8128 ft 298 kts 110°
2026-04-26 16:36 41.98137 21.48111 7664 ft 297 kts 110°
2026-04-26 16:36 41.97345 21.50664 7260 ft 294 kts 110°
2026-04-26 16:36 41.96562 21.53185 6886 ft 290 kts 110°
2026-04-26 16:36 41.95786 21.55674 6513 ft 287 kts 110°
2026-04-26 16:37 41.95013 21.58124 6134 ft 283 kts 110°
2026-04-26 16:37 41.94255 21.60511 5989 ft 270 kts 110°
2026-04-26 16:37 41.93480 21.62724 5960 ft 255 kts 122°
2026-04-26 16:37 41.92704 21.63871 5912 ft 248 kts 138°
2026-04-26 16:38 41.90818 21.65611 5712 ft 244 kts 145°
2026-04-26 16:38 41.89390 21.66831 5487 ft 242 kts 145°
2026-04-26 16:38 41.87962 21.68044 5240 ft 242 kts 145°
2026-04-26 16:38 41.86549 21.69237 5005 ft 243 kts 145°
2026-04-26 16:39 41.85123 21.70427 4753 ft 239 kts 145°
2026-04-26 16:39 41.83727 21.71580 4501 ft 233 kts 145°
2026-04-26 16:39 41.82364 21.72703 4239 ft 228 kts 148°
2026-04-26 16:39 41.80939 21.73513 4041 ft 217 kts 162°
2026-04-26 16:40 41.79491 21.73488 3953 ft 207 kts 198°
2026-04-26 16:40 41.78330 21.72420 3962 ft 202 kts 234°
2026-04-26 16:40 41.77858 21.70710 3978 ft 196 kts 275°
2026-04-26 16:40 41.78349 21.69109 3987 ft 186 kts 318°
2026-04-26 16:41 41.79378 21.68200 3999 ft 166 kts 339°
2026-04-26 16:41 41.80435 21.67690 3905 ft 161 kts 345°
2026-04-26 16:41 41.81508 21.67270 3722 ft 159 kts 347°
2026-04-26 16:41 41.82583 21.66878 3494 ft 162 kts 347°
2026-04-26 16:42 41.83657 21.66500 3275 ft 158 kts 347°
2026-04-26 16:42 41.84731 21.66125 3060 ft 160 kts 347°
2026-04-26 16:42 41.85807 21.65752 2832 ft 158 kts 346°
2026-04-26 16:42 41.86872 21.65382 2629 ft 156 kts 347°
2026-04-26 16:43 41.87919 21.65017 2406 ft 155 kts 347°
2026-04-26 16:43 41.88952 21.64658 2162 ft 154 kts 348°
2026-04-26 16:43 41.89966 21.64304 1957 ft 145 kts 347°
2026-04-26 16:43 41.90877 21.63986 1750 ft 131 kts 346°
2026-04-26 16:44 41.91762 21.63674 1492 ft 132 kts 347°
2026-04-26 16:44 41.92635 21.63368 1339 ft 128 kts 348°
2026-04-26 16:44 41.93490 21.63070 1258 ft 126 kts 348°
2026-04-26 16:44 41.94334 21.62780 1059 ft 125 kts 347°
2026-04-26 16:45 41.95176 21.62486 801 ft 125 kts 347°
2026-04-26 16:45 41.95892 21.62240 792 ft 72 kts 348°
2026-04-26 16:45 41.96261 21.62112 794 ft 44 kts 345°
2026-04-26 16:45 41.96445 21.62040 796 ft 10 kts 346°
2026-04-26 16:46 41.96502 21.62100 797 ft 13 kts 77°
2026-04-26 16:46 41.96523 21.62226 798 ft 10 kts 77°
2026-04-26 16:46 41.96479 21.62300 798 ft 13 kts 162°
2026-04-26 16:46 41.96386 21.62332 798 ft 15 kts 166°
2026-04-26 16:47 41.96280 21.62368 797 ft 17 kts 166°
2026-04-26 16:47 41.96173 21.62405 797 ft 13 kts 165°
2026-04-26 16:47 41.96083 21.62440 797 ft 14 kts 165°
2026-04-26 16:47 41.96003 21.62469 797 ft 10 kts 165°
2026-04-26 16:48 41.95939 21.62494 797 ft 8 kts 147°
2026-04-26 16:48 41.95929 21.62551 798 ft 5 kts 76°
2026-04-26 16:48 41.95937 21.62592 798 ft 3 kts 75°
2026-04-26 16:48 41.95943 21.62622 798 ft 3 kts 75°
2026-04-26 16:49 41.95945 21.62633 798 ft 0 kts 75°